Location: Ferris
(32.5340°N, 96.6656°W)
Time: 11:00:32
(UTC+00:00)

Cosmos 1674 Rocket - Pass Details

Date: 11 February 2026
Orbit: 596 x 622 km, 82.5° (Epoch: 8 March)

Event Time Altitude Azimuth Distance (km) Brightness Sun altitude
Rises 12:20:51 0° 344° (NNW) 2,900 6.7 -11.6°
Reaches altitude 10° 12:23:11 10° 337° (NNW) 1,988 5.8 -11.1°
Maximum altitude 12:27:17 39° 268° (W) 923 4.0 -10.2°
Drops below altitude 10° 12:31:20 10° 200° (SSW) 1,964 6.0 -9.4°
Sets 12:33:38 0° 192° (SSW) 2,860 7.0 -8.9°
